Weather Roundup
Issued by NWS Chicago, IL

Home | Current Version | Previous Version | Graphics & Text | Print | Product List | Glossary On
Versions: 1 2 3 4 5 6 7 8 9 10 11 12 13 14 15 16 17 18 19 20 21 22 23 24 25 26 27 28 29 30 31 32 33 34 35 36 37 38 39 40 41 42 43 44 45 46 47 48 49 50
000
NZUS59 KLOT 221706
HRRLOT

CHICAGO AREA WEATHER ROUNDUP
NATIONAL WEATHER SERVICE CHICAGO/ROMEOVILLE IL
1200 PM CDT TUE JUL 22 2014

NOTE: "FAIR" INDICATES FEW OR NO CLOUDS BELOW 12,000 FEET WITH NO
SIGNIFICANT WEATHER AND/OR OBSTRUCTIONS TO VISIBILITY.

* THESE STATIONS ARE NOT UNDER NWS QUALITY CONTROL. THEY ALSO MAY NOT
  REPORT WEATHER SUCH AS PRECIPITATION OR FOG.

ILZ005-006-012>014-019>023-221800-
NORTHEAST ILLINOIS

CITY           SKY/WX    TMP DP  RH WIND       PRES   REMARKS
OHARE          PTSUNNY   83  66  56 SW13G22   30.00S HX  85
MIDWAY         MOSUNNY   87  69  54 SW20G25   30.00F HX  91
AURORA         MOSUNNY   84  70  62 SW10      30.01F HX  88
LANSING*       SUNNY     83  67  56 SW15G22   30.04S HX  86
JOLIET*        MOSUNNY   84  68  58 SW14      30.02F HX  87
WAUKEGAN       MOSUNNY   84  68  58 SW18G26   29.98S HX  87
DUPAGE AIRPORT MOSUNNY   85  69  58 SW16      30.00F HX  89
WHEELING       MOSUNNY   84  68  58 S13       30.00F HX  87
KANKAKEE*      SUNNY     84  71  65 S13       30.05F HX  89
MORRIS*        MOSUNNY   84  71  65 S9        30.00F HX  89
LEWIS AIRPORT* MOSUNNY   84  69  60 SW14      30.01F HX  87
NORTHERLY IS     N/A     84  66  54 S13         N/A  HX  86
$$

WIZ051-052-058>065-066-070>072-221800-
SOUTHEAST WISCONSIN

CITY           SKY/WX    TMP DP  RH WIND       PRES   REMARKS
MILWAUKEE      CLOUDY    84  69  60 SW18      29.95F HX  88
KENOSHA*       PTSUNNY   84  70  62 SW14      29.97S HX  88
RACINE*        PTSUNNY   86  70  58 SW12G20   29.98S HX  90
BURLINGTON     PTSUNNY   82  71  70 SW15G21   29.97S HX  86
WAUKESHA         N/A     81  70  69 SW10      29.97F HX  84
WEST BEND      MOSUNNY   82  70  65 SW10G20   29.93F HX  86
$$

INZ001>003-010>013-019-020-221800-
NORTHWEST INDIANA

CITY           SKY/WX    TMP DP  RH WIND       PRES   REMARKS
GARY*          NOT AVBL
MICHIGAN CITY* NOT AVBL
RENSSELAER*    NOT AVBL
VALPARAISO     SUNNY     83  66  56 SW15G24   30.06R HX  85
$$

LMZ740>746-221800-
SOUTHERN LAKE MICHIGAN

STATION/POSITION TIME  SKY/WX   TEMP WIND        PRES    VSBY
                                AIR  DIR/SP/G
                 (UTC)          (F)  (DEG/KT/KT) (MB)    (MI)
HARRISON CRIB    1700            80  210/ 20/ 26   N/A
BURNHAM HARBOR   1700            84  190/ 17/ 18   N/A
CALUMET HARBOR   1700            82  210/ 11/ 17 1015.3F
BURNS HARBOR     1700            80  210/ 12/ 19 1017.3S
MICHIGAN CITY    1700            79  180/ 16/ 20   N/A
$$

ABBREVIATIONS USED IN REMARKS
   TC - TEMPERATURE IN CELSIUS
  WCI - WIND CHILL INDEX
   HX - HEAT INDEX
  VSB - VISIBILITY
$$


USA.gov is the U.S. government's official web portal to all federal, state and local government web resources and services.